When you browse on this site, cookies collect data to enhance your experience and personalize the content and advertising you see.
Visit our Privacy Policy to learn more. By continuing to use the site, you agree to this use of cookies and data.
  • In Netherlands
  • List of Countries
  • For 7 days
  • Water Temperature
  • Weather Map
  • Weather Widgets
  • user-avatar
    Login

    Hourly Weather Sliven

    Today, 20 September, Friday

    Time Temperature Precipitation Wind Pressure Humidity
    00:00 +13°C° 0.5 mm 2 mps 734 mmHg 83%
    01:00 +13°C° 0.5 mm 2 mps 734 mmHg 85%
    02:00 +12°C° 0.5 mm 2 mps 734 mmHg 86%
    03:00 +12°C° 1.1 mm 2 mps 734 mmHg 87%
    04:00 +12°C° 1.1 mm 2 mps 734 mmHg 88%
    05:00 +12°C° 1.1 mm 2 mps 734 mmHg 89%
    06:00 +12°C° 0.3 mm 2 mps 734 mmHg 85%
    07:00 +12°C° 0.3 mm 2 mps 735 mmHg 81%
    08:00 +12°C° 0.3 mm 2 mps 735 mmHg 78%
    09:00 +12°C° 0 mm 3 mps 735 mmHg 69%
    10:00 +13°C° 0 mm 3 mps 735 mmHg 61%
    11:00 +14°C° 0 mm 4 mps 736 mmHg 52%
    12:00 +15°C° 0 mm 4 mps 736 mmHg 51%
    13:00 +17°C° 0 mm 4 mps 735 mmHg 49%
    14:00 +17°C° 0 mm 4 mps 735 mmHg 47%
    15:00 +17°C° 0 mm 4 mps 735 mmHg 46%
    16:00 +17°C° 0 mm 4 mps 735 mmHg 45%
    17:00 +17°C° 0 mm 4 mps 735 mmHg 43%
    18:00 +14°C° 0 mm 3 mps 736 mmHg 46%
    19:00 +14°C° 0 mm 2 mps 736 mmHg 49%
    20:00 +12°C° 0 mm 2 mps 736 mmHg 52%
    21:00 +12°C° 0 mm 2 mps 737 mmHg 51%
    22:00 +11°C° 0 mm 1 mps 737 mmHg 50%
    23:00 +11°C° 0 mm 1 mps 737 mmHg 49%

    Tomorrow, 21 September, Saturday

    Time Temperature Precipitation Wind Pressure Humidity
    00:00 +11°C° 0 mm 1 mps 737 mmHg 50%
    01:00 +11°C° 0 mm 1 mps 737 mmHg 50%
    02:00 +9°C° 0 mm 0 mps 737 mmHg 51%
    03:00 +9°C° 0 mm 0 mps 738 mmHg 51%
    04:00 +9°C° 0 mm 0 mps 738 mmHg 52%
    05:00 +9°C° 0 mm 0 mps 738 mmHg 53%
    06:00 +10°C° 0 mm 0 mps 738 mmHg 49%
    07:00 +12°C° 0 mm 0 mps 738 mmHg 46%
    08:00 +13°C° 0 mm 0 mps 739 mmHg 42%
    09:00 +15°C° 0 mm 0 mps 739 mmHg 38%
    10:00 +18°C° 0 mm 1 mps 739 mmHg 34%
    11:00 +20°C° 0 mm 1 mps 739 mmHg 30%
    12:00 +21°C° 0 mm 1 mps 739 mmHg 28%
    13:00 +21°C° 0 mm 1 mps 739 mmHg 27%
    14:00 +22°C° 0 mm 1 mps 738 mmHg 25%
    15:00 +21°C° 0 mm 1 mps 738 mmHg 26%
    16:00 +21°C° 0 mm 1 mps 738 mmHg 27%
    17:00 +21°C° 0 mm 1 mps 738 mmHg 28%
    18:00 +17°C° 0 mm 2 mps 738 mmHg 36%
    19:00 +15°C° 0 mm 2 mps 738 mmHg 44%
    20:00 +13°C° 0 mm 2 mps 738 mmHg 53%
    21:00 +12°C° 0 mm 2 mps 738 mmHg 58%
    22:00 +12°C° 0 mm 1 mps 738 mmHg 63%
    23:00 +11°C° 0 mm 1 mps 738 mmHg 68%

    Day after tomorrow, 22 September, Sunday

    Time Temperature Precipitation Wind Pressure Humidity
    00:00 +11°C° 0 mm 1 mps 738 mmHg 69%
    01:00 +11°C° 0 mm 1 mps 738 mmHg 70%
    02:00 +9°C° 0 mm 0 mps 738 mmHg 70%
    03:00 +9°C° 0 mm 0 mps 738 mmHg 71%
    04:00 +9°C° 0 mm 0 mps 737 mmHg 71%
    05:00 +9°C° 0 mm 0 mps 737 mmHg 72%
    06:00 +10°C° 0 mm 0 mps 737 mmHg 66%
    07:00 +13°C° 0 mm 1 mps 738 mmHg 61%
    08:00 +14°C° 0 mm 1 mps 738 mmHg 55%
    09:00 +16°C° 0 mm 1 mps 738 mmHg 48%
    10:00 +19°C° 0 mm 1 mps 738 mmHg 42%
    11:00 +20°C° 0 mm 2 mps 738 mmHg 36%
    12:00 +21°C° 0 mm 2 mps 737 mmHg 33%
    13:00 +23°C° 0 mm 1 mps 737 mmHg 30%
    14:00 +23°C° 0 mm 1 mps 736 mmHg 28%
    15:00 +23°C° 0 mm 2 mps 736 mmHg 29%
    16:00 +23°C° 0 mm 2 mps 735 mmHg 30%
    17:00 +21°C° 0 mm 2 mps 735 mmHg 31%
    18:00 +19°C° 0 mm 2 mps 735 mmHg 41%
    19:00 +16°C° 0 mm 2 mps 735 mmHg 50%
    20:00 +14°C° 0 mm 2 mps 735 mmHg 59%
    21:00 +13°C° 0 mm 2 mps 735 mmHg 64%
    22:00 +13°C° 0 mm 1 mps 735 mmHg 69%
    23:00 +12°C° 0 mm 1 mps 735 mmHg 73%

    23 September, Monday

    Time Temperature Precipitation Wind Pressure Humidity
    00:00 +12°C° 0 mm 1 mps 735 mmHg 74%
    01:00 +12°C° 0 mm 1 mps 735 mmHg 75%
    02:00 +10°C° 0 mm 0 mps 734 mmHg 76%
    03:00 +11°C° 0 mm 1 mps 734 mmHg 77%
    04:00 +11°C° 0 mm 1 mps 734 mmHg 78%
    05:00 +11°C° 0 mm 1 mps 734 mmHg 79%
    06:00 +12°C° 0 mm 1 mps 734 mmHg 73%
    07:00 +14°C° 0 mm 1 mps 734 mmHg 67%
    08:00 +15°C° 0 mm 1 mps 734 mmHg 61%
    09:00 +17°C° 0 mm 2 mps 734 mmHg 53%
    10:00 +19°C° 0 mm 2 mps 734 mmHg 46%
    11:00 +21°C° 0 mm 2 mps 734 mmHg 39%
    12:00 +23°C° 0 mm 2 mps 733 mmHg 36%
    13:00 +24°C° 0 mm 2 mps 732 mmHg 32%
    14:00 +26°C° 0 mm 3 mps 732 mmHg 29%
    15:00 +25°C° 0 mm 3 mps 731 mmHg 30%
    16:00 +25°C° 0 mm 3 mps 731 mmHg 32%
    17:00 +25°C° 0 mm 3 mps 731 mmHg 33%
    18:00 +21°C° 0 mm 3 mps 731 mmHg 44%
    19:00 +19°C° 0 mm 2 mps 731 mmHg 54%
    20:00 +17°C° 0 mm 2 mps 730 mmHg 65%
    21:00 +17°C° 0 mm 2 mps 730 mmHg 65%
    22:00 +17°C° 0 mm 2 mps 730 mmHg 65%
    23:00 +16°C° 0 mm 1 mps 730 mmHg 66%

    24 September, Tuesday

    Time Temperature Precipitation Wind Pressure Humidity
    00:00 +16°C° 0 mm 1 mps 730 mmHg 66%
    01:00 +16°C° 0 mm 1 mps 729 mmHg 66%
    02:00 +16°C° 0 mm 1 mps 729 mmHg 67%
    03:00 +15°C° 0 mm 1 mps 729 mmHg 67%
    04:00 +15°C° 0 mm 1 mps 728 mmHg 68%
    05:00 +15°C° 0 mm 1 mps 728 mmHg 69%
    06:00 +16°C° 0 mm 1 mps 728 mmHg 66%
    07:00 +18°C° 0 mm 1 mps 727 mmHg 63%
    08:00 +19°C° 0 mm 1 mps 727 mmHg 60%
    09:00 +21°C° 0 mm 1 mps 727 mmHg 54%
    10:00 +23°C° 0 mm 2 mps 728 mmHg 49%
    11:00 +25°C° 0 mm 2 mps 728 mmHg 44%
    12:00 +25°C° 0 mm 2 mps 727 mmHg 45%
    13:00 +25°C° 0 mm 2 mps 727 mmHg 46%
    14:00 +25°C° 0 mm 2 mps 726 mmHg 47%
    15:00 +24°C° 0 mm 2 mps 726 mmHg 51%
    16:00 +23°C° 0 mm 1 mps 726 mmHg 55%
    17:00 +22°C° 0 mm 1 mps 726 mmHg 59%
    18:00 +21°C° 0 mm 1 mps 726 mmHg 60%
    19:00 +21°C° 0 mm 1 mps 726 mmHg 60%
    20:00 +20°C° 0 mm 1 mps 727 mmHg 60%
    21:00 +19°C° 0 mm 2 mps 727 mmHg 62%
    22:00 +18°C° 0 mm 2 mps 727 mmHg 63%
    23:00 +18°C° 0 mm 2 mps 727 mmHg 64%

    25 September, Wednesday

    Time Temperature Precipitation Wind Pressure Humidity
    00:00 +17°C° 0 mm 2 mps 727 mmHg 68%
    01:00 +17°C° 0 mm 2 mps 727 mmHg 72%
    02:00 +16°C° 0 mm 2 mps 727 mmHg 75%
    03:00 +16°C° 0 mm 2 mps 727 mmHg 78%
    04:00 +16°C° 0 mm 2 mps 727 mmHg 80%
    05:00 +15°C° 0 mm 2 mps 727 mmHg 82%
    06:00 +16°C° 0 mm 2 mps 728 mmHg 79%
    07:00 +16°C° 0 mm 3 mps 728 mmHg 75%
    08:00 +17°C° 0 mm 3 mps 728 mmHg 72%
    09:00 +18°C° 0 mm 3 mps 728 mmHg 66%
    10:00 +20°C° 0 mm 3 mps 729 mmHg 60%
    11:00 +21°C° 0 mm 3 mps 729 mmHg 54%
    12:00 +22°C° 0 mm 4 mps 729 mmHg 52%
    13:00 +23°C° 0 mm 4 mps 729 mmHg 49%
    14:00 +25°C° 0 mm 4 mps 729 mmHg 46%
    15:00 +23°C° 0 mm 4 mps 729 mmHg 50%
    16:00 +22°C° 0 mm 4 mps 729 mmHg 53%
    17:00 +21°C° 0 mm 4 mps 729 mmHg 56%
    18:00 +20°C° 0 mm 3 mps 729 mmHg 64%
    19:00 +18°C° 0 mm 3 mps 730 mmHg 72%
    20:00 +16°C° 0 mm 2 mps 730 mmHg 80%
    21:00 +16°C° 0 mm 2 mps 730 mmHg 82%
    22:00 +15°C° 0 mm 1 mps 730 mmHg 84%
    23:00 +15°C° 0 mm 1 mps 730 mmHg 86%
    Show more